ALDINGEN Weather Reports


time (UTC)temp
F
wind
direction
speed
knots
gust
knots
rain 1hr
in
rain 24hr
in
rain mn
in
humidity
%
barometer
mb
20260507050213 45 199 0.0 0.0 0.00 0.00 0.10 94 1011.9
20260507043211 44 131 0.9 0.0 0.00 0.00 0.10 95 1011.6
20260507040216 44 101 1.7 0.0 0.00 0.00 0.08 95 1011.4
20260507033211 44 114 0.0 0.0 0.00 0.00 0.05 95 1011.2
20260507030211 44 103 0.9 0.0 0.00 0.00 0.02 94 1011.1
20260507023211 44 132 0.0 0.0 0.00 0.00 0.02 94 1011.0
20260507020211 44 142 1.7 0.0 0.00 0.00 0.02 94 1010.8
20260507013212 43 119 2.6 0.0 0.00 0.00 0.02 95 1010.6
20260507010211 42 91 0.0 0.0 0.00 0.00 0.02 95 1010.4
20260507003209 43 90 0.0 0.0 0.00 0.00 0.01 95 1010.4
20260507000209 43 202 0.0 0.0 0.00 0.00 0.01 93 1010.1
20260506233209 44 250 0.9 0.0 0.00 0.00 0.01 93 1010.3
20260506230209 44 121 0.0 0.0 0.00 0.00 0.01 94 1009.9
20260506223209 45 186 0.0 0.0 0.00 0.00 0.01 93 1009.9
20260506220209 46 171 1.7 0.0 0.00 0.00 0.00 93 1010.2
20260506213209 46 102 2.6 0.0 0.00 0.00 0.59 94 1010.3
20260506210210 46 126 1.7 0.0 0.00 0.00 0.59 94 1009.9
20260506203210 46 111 0.0 0.0 0.00 0.00 0.58 94 1009.7
20260506200210 46 181 0.0 0.0 0.00 0.00 0.57 93 1009.7
20260506193215 47 0 0.0 0.0 0.00 0.00 0.56 93 1009.1
20260506190211 47 154 4.3 0.0 0.00 0.00 0.55 92 1008.8
20260506183209 47 263 1.7 0.0 0.00 0.00 0.55 92 1008.5
20260506180216 47 223 2.6 0.0 0.00 0.00 0.54 90 1008.2
20260506173210 48 246 2.6 0.0 0.00 0.00 0.53 90 1007.8
20260506170215 49 264 7.0 0.0 0.00 0.00 0.53 90 1007.4
20260506163210 49 200 1.7 0.0 0.00 0.00 0.53 91 1007.4
20260506160210 49 169 3.5 0.0 0.00 0.00 0.52 90 1007.4
20260506153210 49 179 3.5 0.0 0.00 0.00 0.51 90 1007.3
20260506150210 50 211 7.0 0.0 0.00 0.00 0.50 90 1007.1
20260506143210 50 178 0.0 0.0 0.00 0.00 0.46 92 1006.7
20260506140210 51 209 0.0 0.0 0.00 0.00 0.32 89 1006.3
20260506133211 51 306 3.5 0.0 0.00 0.00 0.31 90 1006.0
20260506130211 51 360 0.9 0.0 0.00 0.00 0.29 88 1005.8
20260506123210 51 338 4.3 0.0 0.00 0.00 0.27 85 1005.7
20260506120210 55 85 0.9 0.0 0.00 0.00 0.14 82 1005.1
20260506113217 55 192 0.9 0.0 0.00 0.00 0.14 79 1005.0
20260506110210 53 264 2.6 0.0 0.00 0.00 0.14 84 1005.2
20260506100213 58 263 0.0 0.0 0.00 0.00 0.00 69 1005.2
20260506093211 57 315 0.0 0.0 0.00 0.00 0.00 67 1005.3
20260506090211 57 69 0.9 0.0 0.00 0.00 0.00 72 1005.4
20260506083211 56 108 0.0 0.0 0.00 0.00 0.00 77 1005.2
20260506080212 55 294 3.5 0.0 0.00 0.00 0.00 80 1005.4
20260506073211 53 111 0.0 0.0 0.00 0.00 0.00 84 1005.5
20260506070212 51 100 0.9 0.0 0.00 0.00 0.00 89 1005.5
20260506060210 46 121 0.0 0.0 0.00 0.00 0.00 94 1005.6